Вернуться в каталог

DELTA 1 DEB

АктивенLEO
NORAD 10220·DEBRIS·🇺🇸 United States

Запущен Jul 14, 1977 с Cape Canaveral Space Force Station

Loading…

Ближайшие Пролёты (ближайшие 24 часа)

TLE

СвежийSource: Space-Track

Эпоха: Sep 14, 2026, 05:41 UTC

1 10220U 77065AX  26257.23682701  .00006188  00000-0  18173-2 0  9996
2 10220  29.1370 331.6837 0348136 180.5193 179.5049 14.12493176389140

Отслеживайте DELTA 1 DEB в реальном времени с AllMySat

Download on the App Store